QPF
0.05 0.05 0.05 0.04 0.04 0.04 0.04 0.05 0.07 0.06 0.04 0.03 0.04 0.04 0.03 0.04 0.04 0.04 0.03 0.04 0.04 0.05 0.04 0.04 0.05 0.04 0.03 0.03 0.03 0.03 0.03 0.03 0.04 0.04 0.05 0.05 0.04 0.04
0.05 0.05 0.04 0.04 0.03 0.04 0.05 0.05 0.06 0.06 0.04 0.04 0.04 0.04 0.04 0.04 0.05 0.06 0.04 0.04 0.04 0.04 0.04 0.04 0.05 0.04 0.02 0.03 0.03 0.03 0.03 0.03 0.03 0.03 0.03 0.02 0.02 0.02
0.05 0.05 0.05 0.05 0.04 0.05 0.06 0.06 0.06 0.06 0.05 0.04 0.04 0.05 0.04 0.04 0.05 0.05 0.04 0.03 0.04 0.05 0.05 0.05 0.05 0.04 0.03 0.02 0.02 0.03 0.03 0.03 0.03 0.03 0.03 0.02 0.02 0.02
0.03 0.03 0.03 0.04 0.04 0.04 0.05 0.05 0.07 0.09 0.10 0.10 0.08 0.06 0.05 0.04 0.04 0.06 0.06 0.06 0.05 0.07 0.07 0.08 0.07 0.06 0.05 0.05 0.05 0.05 0.05 0.04 0.02 0.02 0.02 0.02 0.01 0.01
0.03 0.03 0.03 0.04 0.03 0.04 0.04 0.04 0.05 0.08 0.08 0.06 0.04 0.04 0.04 0.03 0.05 0.05 0.05 0.05 0.05 0.06 0.06 0.07 0.07 0.07 0.07 0.06 0.06 0.05 0.04 0.03 0.03 0.02 0.02 0.02 0.01 0.01
0.04 0.03 0.03 0.03 0.03 0.03 0.03 0.03 0.05 0.06 0.06 0.05 0.04 0.04 0.04 0.04 0.04 0.04 0.04 0.03 0.04 0.04 0.04 0.04 0.05 0.06 0.06 0.06 0.06 0.05 0.05 0.04 0.03 0.03 0.03 0.03 0.02 0.02
0.04 0.03 0.04 0.04 0.04 0.04 0.04 0.04 0.06 0.05 0.04 0.04 0.04 0.04 0.04 0.04 0.04 0.05 0.05 0.05 0.04 0.03 0.02 0.02 0.03 0.03 0.04 0.05 0.06 0.06 0.05 0.05 0.05 0.04 0.04 0.04 0.04 0.04
0.04 0.04 0.05 0.05 0.05 0.04 0.04 0.04 0.05 0.04 0.04 0.05 0.06 0.05 0.05 0.06 0.07 0.07 0.07 0.06 0.04 0.04 0.03 0.03 0.03 0.03 0.04 0.05 0.06 0.06 0.05 0.05 0.05 0.06 0.06 0.06 0.05 0.05
0.03 0.03 0.03 0.03 0.04 0.03 0.04 0.05 0.05 0.04 0.04 0.05 0.05 0.05 0.07 0.08 0.08 0.07 0.07 0.06 0.06 0.05 0.04 0.03 0.03 0.04 0.04 0.05 0.07 0.07 0.06 0.05 0.04 0.04 0.05 0.06 0.07 0.06
0.02 0.02 0.02 0.02 0.03 0.04 0.04 0.04 0.05 0.05 0.05 0.05 0.05 0.05 0.07 0.07 0.08 0.07 0.07 0.07 0.06 0.06 0.05 0.04 0.04 0.05 0.06 0.05 0.07 0.07 0.07 0.07 0.07 0.06 0.05 0.05 0.05 0.06
0.01 0.02 0.02 0.02 0.03 0.04 0.05 0.05 0.05 0.06 0.07 0.08 0.07 0.06 0.05 0.05 0.06 0.06 0.05 0.06 0.07 0.06 0.05 0.04 0.05 0.05 0.05 0.04 0.04 0.04 0.05 0.06 0.08 0.08 0.08 0.07 0.05 0.04
0.02 0.02 0.03 0.03 0.05 0.06 0.06 0.07 0.08 0.07 0.07 0.06 0.07 0.06 0.05 0.05 0.06 0.06 0.06 0.06 0.05 0.05 0.05 0.04 0.04 0.05 0.05 0.05 0.04 0.04 0.04 0.04 0.05 0.07 0.08 0.08 0.07 0.05
0.02 0.02 0.02 0.03 0.05 0.07 0.08 0.09 0.11 0.10 0.08 0.06 0.05 0.05 0.06 0.07 0.07 0.07 0.08 0.08 0.06 0.05 0.04 0.05 0.06 0.05 0.05 0.06 0.07 0.06 0.05 0.04 0.03 0.03 0.04 0.05 0.06 0.05
0.03 0.02 0.03 0.03 0.03 0.04 0.05 0.06 0.07 0.06 0.05 0.05 0.05 0.04 0.04 0.05 0.07 0.07 0.08 0.09 0.10 0.09 0.09 0.09 0.10 0.09 0.07 0.07 0.07 0.07 0.06 0.06 0.06 0.05 0.05 0.05 0.05 0.04
0.03 0.04 0.05 0.05 0.05 0.04 0.04 0.04 0.04 0.04 0.05 0.05 0.04 0.03 0.03 0.03 0.04 0.05 0.07 0.10 0.12 0.14 0.15 0.16 0.16 0.15 0.12 0.10 0.08 0.07 0.07 0.07 0.07 0.06 0.06 0.05 0.04 0.04
0.03 0.04 0.04 0.05 0.06 0.05 0.04 0.03 0.03 0.03 0.04 0.04 0.04 0.03 0.03 0.03 0.05 0.06 0.08 0.10 0.11 0.13 0.15 0.14 0.14 0.14 0.12 0.10 0.09 0.09 0.08 0.07 0.06 0.04 0.03 0.03 0.02 0.03
0.03 0.04 0.04 0.03 0.03 0.02 0.02 0.02 0.02 0.02 0.02 0.03 0.03 0.03 0.03 0.04 0.04 0.05 0.06 0.08 0.08 0.08 0.09 0.09 0.09 0.09 0.09 0.07 0.07 0.07 0.06 0.05 0.03 0.02 0.02 0.02 0.02 0.02
0.02 0.02 0.02 0.02 0.02 0.02 0.02 0.01 0.01 0.01 0.01 0.01 0.02 0.02 0.02 0.02 0.02 0.02 0.03 0.03 0.03 0.03 0.03 0.04 0.04 0.04 0.05 0.04 0.04 0.04 0.04 0.03 0.02 0.02 0.01 0.01 0.01 0.01
0.01 0.01 0.01 0.01 0.01 0.01 0.00 0.00 0.00 0.01 0.01 0.01 0.01 0.01 0.01 0.01 0.01 0.01 0.01 0.01 0.01 0.01 0.02 0.02 0.03 0.04 0.05 0.04 0.04 0.04 0.04 0.04 0.04 0.03 0.03 0.02 0.02 0.01
0.01 0.02 0.02 0.02 0.01 0.01 0.01 0.01 0.00 0.00 0.01 0.01 0.01 0.02 0.02 0.02 0.01 0.01 0.01 0.01 0.01 0.01 0.01 0.02 0.03 0.03 0.03 0.03 0.03 0.03 0.03 0.03 0.03 0.03 0.03 0.03 0.03 0.02
0.01 0.01 0.01 0.01 0.01 0.01 0.01 0.02 0.02 0.02 0.02 0.02 0.03 0.03 0.03 0.02 0.01 0.01 0.01 0.01 0.01 0.01 0.01 0.02 0.02 0.02 0.02 0.02 0.02 0.01 0.01 0.01 0.02 0.02 0.02 0.02 0.02 0.02
0.01 0.01 0.01 0.02 0.02 0.02 0.03 0.04 0.06 0.06 0.05 0.05 0.04 0.04 0.02 0.01 0.01 0.01 0.00 0.00 0.00 0.00 0.01 0.01 0.01 0.02 0.02 0.02 0.02 0.01 0.01 0.01 0.01 0.01 0.01 0.01 0.02 0.02
0.02 0.02 0.02 0.01 0.01 0.02 0.03 0.05 0.06 0.05 0.05 0.05 0.05 0.05 0.03 0.02 0.01 0.01 0.00 0.00 0.00 0.00 0.01 0.01 0.01 0.01 0.01 0.01 0.01 0.01 0.01 0.01 0.01 0.01 0.01 0.01 0.01 0.01
MSLP
1017.25 1017.30 1017.46 1017.70 1018.02 1018.37 1018.74 1019.12 1019.49 1019.83 1020.13 1020.38 1020.54 1020.59 1020.52 1020.32 1019.99 1019.55 1019.04 1018.50 1017.96 1017.46 1017.01 1016.61 1016.27 1015.94 1015.63 1015.30 1014.97 1014.63 1014.33 1014.09 1013.95 1013.94 1014.08 1014.35 1014.75 1015.23
1018.80 1018.78 1018.84 1018.99 1019.19 1019.45 1019.74 1020.05 1020.38 1020.71 1021.01 1021.27 1021.44 1021.49 1021.42 1021.19 1020.83 1020.35 1019.80 1019.20 1018.62 1018.07 1017.58 1017.16 1016.79 1016.43 1016.08 1015.71 1015.31 1014.90 1014.50 1014.15 1013.90 1013.77 1013.79 1013.96 1014.26 1014.66
1020.41 1020.33 1020.32 1020.36 1020.46 1020.61 1020.80 1021.04 1021.30 1021.58 1021.85 1022.09 1022.25 1022.29 1022.20 1021.97 1021.59 1021.10 1020.52 1019.92 1019.32 1018.77 1018.28 1017.86 1017.49 1017.14 1016.78 1016.39 1015.96 1015.50 1015.03 1014.61 1014.26 1014.02 1013.93 1013.99 1014.18 1014.48
1021.95 1021.84 1021.76 1021.73 1021.74 1021.79 1021.88 1022.03 1022.21 1022.43 1022.65 1022.84 1022.96 1022.99 1022.88 1022.64 1022.26 1021.77 1021.21 1020.62 1020.04 1019.51 1019.05 1018.65 1018.30 1017.97 1017.62 1017.24 1016.80 1016.32 1015.83 1015.35 1014.94 1014.63 1014.45 1014.40 1014.49 1014.67
1023.34 1023.22 1023.11 1023.02 1022.95 1022.92 1022.93 1022.99 1023.10 1023.23 1023.39 1023.52 1023.60 1023.60 1023.48 1023.23 1022.86 1022.38 1021.84 1021.28 1020.74 1020.25 1019.82 1019.45 1019.13 1018.83 1018.50 1018.14 1017.72 1017.25 1016.75 1016.26 1015.82 1015.46 1015.22 1015.10 1015.09 1015.17
1024.55 1024.42 1024.30 1024.17 1024.07 1023.98 1023.93 1023.91 1023.94 1024.01 1024.09 1024.17 1024.20 1024.15 1024.01 1023.76 1023.40 1022.94 1022.44 1021.91 1021.41 1020.95 1020.55 1020.21 1019.92 1019.63 1019.33 1018.99 1018.59 1018.14 1017.66 1017.18 1016.75 1016.38 1016.11 1015.94 1015.87 1015.87
1025.56 1025.44 1025.32 1025.19 1025.06 1024.94 1024.85 1024.78 1024.76 1024.76 1024.78 1024.79 1024.77 1024.69 1024.52 1024.26 1023.90 1023.47 1023.00 1022.50 1022.03 1021.60 1021.22 1020.90 1020.61 1020.33 1020.04 1019.70 1019.32 1018.90 1018.45 1018.00 1017.59 1017.24 1016.97 1016.79 1016.68 1016.62
1026.41 1026.30 1026.19 1026.07 1025.94 1025.81 1025.70 1025.60 1025.53 1025.49 1025.45 1025.41 1025.34 1025.22 1025.03 1024.76 1024.41 1023.99 1023.53 1023.06 1022.61 1022.19 1021.82 1021.49 1021.19 1020.90 1020.59 1020.26 1019.89 1019.48 1019.06 1018.65 1018.27 1017.95 1017.69 1017.52 1017.39 1017.31
1027.14 1027.04 1026.94 1026.83 1026.72 1026.60 1026.48 1026.38 1026.28 1026.20 1026.13 1026.04 1025.93 1025.77 1025.55 1025.27 1024.92 1024.51 1024.06 1023.61 1023.16 1022.74 1022.35 1022.00 1021.67 1021.35 1021.02 1020.67 1020.29 1019.89 1019.48 1019.09 1018.74 1018.45 1018.22 1018.04 1017.92 1017.81
1027.79 1027.70 1027.61 1027.53 1027.43 1027.33 1027.22 1027.11 1027.01 1026.90 1026.79 1026.67 1026.52 1026.33 1026.09 1025.79 1025.44 1025.03 1024.59 1024.14 1023.69 1023.26 1022.85 1022.46 1022.10 1021.73 1021.36 1020.97 1020.57 1020.16 1019.75 1019.37 1019.03 1018.74 1018.52 1018.35 1018.22 1018.10
1028.40 1028.32 1028.24 1028.17 1028.09 1028.01 1027.91 1027.81 1027.70 1027.58 1027.45 1027.30 1027.12 1026.90 1026.64 1026.33 1025.96 1025.55 1025.12 1024.66 1024.20 1023.75 1023.32 1022.90 1022.49 1022.08 1021.66 1021.23 1020.79 1020.35 1019.92 1019.53 1019.17 1018.88 1018.64 1018.45 1018.30 1018.15
1029.00 1028.92 1028.86 1028.80 1028.73 1028.66 1028.57 1028.47 1028.35 1028.22 1028.07 1027.90 1027.70 1027.46 1027.18 1026.85 1026.48 1026.07 1025.63 1025.17 1024.70 1024.23 1023.78 1023.32 1022.87 1022.42 1021.95 1021.48 1021.00 1020.52 1020.06 1019.63 1019.24 1018.91 1018.64 1018.41 1018.22 1018.04
1029.60 1029.52 1029.46 1029.41 1029.35 1029.27 1029.19 1029.08 1028.95 1028.81 1028.64 1028.45 1028.23 1027.97 1027.68 1027.34 1026.96 1026.55 1026.10 1025.64 1025.16 1024.68 1024.20 1023.72 1023.23 1022.74 1022.24 1021.73 1021.21 1020.69 1020.19 1019.72 1019.28 1018.90 1018.57 1018.28 1018.03 1017.80
1030.19 1030.11 1030.05 1029.99 1029.93 1029.85 1029.75 1029.63 1029.49 1029.32 1029.14 1028.93 1028.69 1028.42 1028.12 1027.77 1027.39 1026.97 1026.52 1026.05 1025.56 1025.07 1024.57 1024.06 1023.55 1023.03 1022.50 1021.96 1021.41 1020.86 1020.31 1019.79 1019.31 1018.86 1018.47 1018.12 1017.80 1017.51
1030.73 1030.67 1030.60 1030.53 1030.45 1030.35 1030.23 1030.09 1029.92 1029.74 1029.54 1029.31 1029.07 1028.79 1028.47 1028.12 1027.73 1027.31 1026.86 1026.38 1025.88 1025.36 1024.85 1024.32 1023.79 1023.25 1022.69 1022.13 1021.55 1020.97 1020.40 1019.84 1019.31 1018.81 1018.35 1017.93 1017.55 1017.20
1031.22 1031.15 1031.08 1031.00 1030.89 1030.76 1030.61 1030.43 1030.24 1030.04 1029.82 1029.58 1029.33 1029.04 1028.73 1028.38 1027.99 1027.56 1027.09 1026.60 1026.08 1025.55 1025.01 1024.46 1023.91 1023.34 1022.77 1022.19 1021.60 1021.01 1020.41 1019.83 1019.26 1018.72 1018.21 1017.73 1017.28 1016.87
1031.60 1031.54 1031.45 1031.34 1031.20 1031.04 1030.85 1030.65 1030.43 1030.21 1029.97 1029.73 1029.48 1029.20 1028.89 1028.54 1028.14 1027.71 1027.23 1026.72 1026.18 1025.62 1025.05 1024.48 1023.90 1023.31 1022.72 1022.13 1021.53 1020.92 1020.31 1019.71 1019.12 1018.55 1018.00 1017.47 1016.98 1016.51
1031.85 1031.78 1031.68 1031.54 1031.37 1031.17 1030.95 1030.71 1030.47 1030.24 1030.00 1029.76 1029.51 1029.24 1028.94 1028.60 1028.21 1027.77 1027.28 1026.75 1026.19 1025.60 1024.99 1024.38 1023.77 1023.15 1022.54 1021.93 1021.32 1020.70 1020.09 1019.48 1018.87 1018.27 1017.70 1017.14 1016.60 1016.09
1031.95 1031.87 1031.75 1031.58 1031.37 1031.14 1030.89 1030.63 1030.38 1030.14 1029.91 1029.69 1029.45 1029.20 1028.92 1028.59 1028.21 1027.77 1027.27 1026.72 1026.13 1025.51 1024.86 1024.21 1023.56 1022.91 1022.27 1021.64 1021.00 1020.37 1019.74 1019.12 1018.50 1017.89 1017.29 1016.70 1016.13 1015.58
1031.89 1031.80 1031.65 1031.45 1031.22 1030.96 1030.69 1030.42 1030.17 1029.93 1029.72 1029.52 1029.31 1029.09 1028.83 1028.52 1028.15 1027.71 1027.21 1026.65 1026.03 1025.38 1024.70 1024.01 1023.32 1022.63 1021.95 1021.28 1020.62 1019.97 1019.32 1018.67 1018.03 1017.39 1016.77 1016.15 1015.55 1014.97
1031.69 1031.57 1031.39 1031.17 1030.91 1030.64 1030.36 1030.09 1029.85 1029.63 1029.44 1029.26 1029.08 1028.89 1028.66 1028.38 1028.03 1027.60 1027.11 1026.54 1025.91 1025.23 1024.53 1023.81 1023.08 1022.35 1021.63 1020.92 1020.22 1019.52 1018.84 1018.16 1017.48 1016.82 1016.16 1015.51 1014.88 1014.26
1031.35 1031.20 1031.00 1030.75 1030.48 1030.19 1029.91 1029.65 1029.42 1029.23 1029.06 1028.92 1028.77 1028.61 1028.41 1028.15 1027.82 1027.42 1026.93 1026.37 1025.74 1025.06 1024.34 1023.60 1022.84 1022.08 1021.32 1020.56 1019.82 1019.08 1018.35 1017.62 1016.90 1016.19 1015.50 1014.81 1014.15 1013.49
1030.90 1030.71 1030.48 1030.22 1029.93 1029.64 1029.37 1029.12 1028.91 1028.73 1028.59 1028.46 1028.35 1028.21 1028.03 1027.80 1027.50 1027.12 1026.65 1026.11 1025.50 1024.83 1024.11 1023.36 1022.59 1021.81 1021.02 1020.23 1019.43 1018.65 1017.86 1017.09 1016.32 1015.56 1014.82 1014.09 1013.39 1012.71
Thickness
5730 5729 5728 5727 5725 5724 5722 5720 5715 5710 5711 5714 5716 5718 5718 5717 5717 5715 5714 5713 5712 5710 5708 5707 5705 5703 5702 5700 5698 5696 5694 5693 5691 5690 5688 5687 5686 5684
5729 5727 5726 5725 5724 5723 5722 5720 5718 5714 5710 5712 5713 5714 5714 5714 5713 5712 5711 5710 5708 5707 5705 5704 5702 5700 5698 5696 5694 5692 5690 5689 5687 5686 5684 5683 5682 5680
5726 5725 5724 5724 5722 5721 5720 5718 5717 5714 5710 5710 5710 5710 5710 5710 5709 5708 5707 5706 5704 5703 5702 5701 5698 5696 5694 5692 5690 5687 5685 5684 5682 5681 5679 5678 5676 5675
5723 5722 5721 5721 5719 5718 5717 5716 5714 5713 5710 5707 5706 5705 5705 5705 5704 5703 5702 5701 5699 5698 5697 5695 5693 5691 5689 5687 5684 5682 5680 5678 5676 5675 5673 5671 5670 5668
5721 5719 5719 5718 5716 5715 5714 5713 5711 5710 5707 5704 5702 5701 5700 5699 5698 5697 5696 5694 5693 5692 5691 5689 5686 5684 5682 5680 5677 5675 5673 5671 5669 5667 5666 5665 5663 5661
5718 5717 5716 5715 5714 5713 5711 5709 5708 5705 5703 5700 5697 5695 5694 5693 5692 5690 5689 5688 5686 5685 5684 5682 5679 5677 5675 5673 5671 5669 5667 5664 5662 5660 5658 5657 5655 5653
5713 5713 5713 5712 5711 5710 5708 5706 5704 5701 5698 5695 5692 5690 5688 5686 5685 5684 5682 5681 5679 5677 5675 5673 5671 5669 5667 5665 5663 5661 5659 5657 5655 5652 5650 5648 5647 5645
5708 5708 5708 5707 5706 5705 5703 5702 5700 5697 5693 5690 5687 5684 5682 5681 5680 5678 5675 5673 5670 5669 5667 5665 5663 5660 5658 5656 5655 5652 5650 5648 5646 5644 5641 5639 5637 5636
5703 5702 5702 5701 5700 5699 5697 5695 5693 5691 5689 5686 5682 5679 5677 5676 5673 5671 5668 5666 5662 5660 5658 5655 5653 5650 5648 5646 5645 5643 5641 5638 5636 5634 5632 5630 5628 5626
5698 5696 5695 5694 5694 5692 5691 5688 5686 5683 5681 5679 5677 5674 5672 5669 5667 5664 5661 5658 5654 5651 5648 5644 5642 5639 5637 5635 5633 5632 5630 5628 5626 5623 5621 5619 5617 5615
5690 5689 5688 5687 5686 5685 5684 5680 5677 5674 5672 5669 5667 5665 5663 5661 5658 5656 5652 5649 5645 5642 5637 5634 5631 5628 5626 5623 5621 5619 5618 5616 5613 5611 5609 5607 5605 5603
5682 5681 5679 5678 5677 5676 5674 5671 5667 5663 5662 5660 5657 5655 5653 5651 5648 5646 5643 5639 5635 5632 5627 5624 5621 5618 5615 5611 5609 5607 5605 5603 5601 5599 5596 5594 5592 5590
5674 5671 5669 5668 5667 5666 5664 5661 5658 5655 5652 5650 5646 5644 5641 5639 5636 5633 5631 5628 5625 5621 5617 5614 5611 5608 5605 5601 5597 5595 5592 5590 5588 5585 5583 5581 5579 5577
5665 5662 5660 5658 5657 5655 5653 5650 5648 5646 5643 5639 5635 5631 5628 5625 5623 5621 5619 5616 5613 5610 5607 5604 5601 5597 5594 5590 5587 5583 5580 5577 5575 5572 5570 5568 5565 5563
5656 5653 5651 5649 5647 5644 5641 5639 5637 5634 5631 5627 5623 5619 5616 5613 5611 5609 5607 5605 5602 5598 5595 5592 5589 5586 5583 5579 5575 5571 5568 5565 5561 5559 5557 5555 5552 5550
5647 5644 5641 5638 5635 5632 5629 5627 5625 5622 5619 5615 5611 5607 5605 5602 5600 5597 5595 5592 5589 5585 5582 5579 5576 5574 5571 5568 5564 5559 5556 5552 5549 5546 5544 5542 5539 5537
5638 5635 5631 5628 5624 5621 5618 5615 5612 5609 5606 5603 5600 5597 5594 5591 5587 5584 5581 5579 5575 5571 5568 5565 5562 5560 5557 5555 5552 5548 5544 5540 5536 5533 5531 5530 5527 5524
5630 5625 5620 5616 5613 5609 5606 5603 5600 5597 5594 5592 5588 5585 5582 5578 5575 5572 5568 5565 5562 5558 5555 5552 5550 5548 5545 5541 5536 5534 5531 5527 5524 5521 5519 5517 5516 5512
5620 5614 5610 5606 5602 5599 5596 5592 5589 5586 5583 5580 5577 5573 5570 5567 5563 5560 5556 5552 5549 5546 5542 5539 5537 5536 5534 5530 5523 5518 5517 5514 5512 5509 5507 5504 5502 5500
5608 5604 5600 5596 5593 5589 5585 5582 5579 5575 5572 5569 5565 5561 5558 5555 5551 5547 5543 5540 5537 5533 5530 5527 5523 5520 5518 5514 5511 5507 5503 5501 5499 5497 5494 5492 5489 5487
5597 5593 5589 5586 5582 5578 5575 5571 5568 5564 5561 5557 5553 5549 5546 5542 5538 5535 5531 5526 5524 5521 5518 5514 5509 5505 5503 5500 5498 5495 5491 5487 5484 5482 5480 5479 5478 5477
5587 5583 5579 5576 5572 5568 5565 5561 5557 5553 5549 5546 5542 5538 5534 5530 5527 5523 5520 5516 5513 5509 5505 5501 5497 5494 5491 5489 5485 5482 5479 5476 5472 5469 5466 5464 5463 5464
5577 5573 5570 5566 5562 5558 5554 5551 5547 5542 5538 5534 5531 5527 5523 5519 5515 5511 5508 5504 5501 5498 5494 5490 5486 5482 5478 5475 5472 5470 5468 5465 5463 5461 5458 5454 5451 5450